[[{"header":{"parameterUnit":"m.s-1","parameterCategory":2,"la1":30.2991,"la2":30.254,"lo1":-89.0895,"lo2":-89.0444,"dy":0.0017,"dx":0.0017,"nx":28,"ny":28,"refTime":"2024-10-21T21:00:00:Z","depth":"0","parameterNumber":2,"parameterNumberName":"U-component_of_CURRENTS"},"data":[0,0,0,0,0,0,0,0,0,0,0,0,0,0,0,0,0,0,0,0,0,0,0,0,0,0,0,0,0,0,0,0,0,0,0,0,0,0,0,0,0,0,0,0,0,0,0,0,0,0,0,0,0,0,0,0,0,0,0.3149,0.3149,0,0.321,0.3211,0.3211,0.3196,0.3195,0.3194,0.3193,0.3186,0.3187,0.3187,0,0,0,0,0,0,0,0,0,0,0,0,0,0.3054,0.3055,0.3149,0.315,0.315,0.321,0.3211,0.3211,0.3196,0.3195,0.3194,0.3192,0.3186,0.3187,0.3187,0,0,0,0,0,0,0,0,0,0,0,0,0,0.3101,0.3056,0.3148,0.3151,0.3152,0.321,0.3211,0.3211,0.3196,0.3195,0.3193,0.3192,0.3185,0.3186,0.3188,0.3226,0,0,0.3191,0.3192,0,0,0,0,0,0,0,0,0.3099,0.3105,0.315,0.3151,0.3153,0.3195,0.3175,0.3213,0.3197,0.3178,0.3193,0.3191,0.3185,0.3186,0.3199,0.3225,0.3225,0.3191,0.3192,0.3192,0.3193,0,0,0,0,0,0,0,0.3095,0.3102,0.3171,0.3151,0.3153,0.3162,0.3167,0.3182,0.3187,0.3179,0.3179,0.3189,0.3185,0.3198,0.3199,0.3225,0.3191,0.3192,0.3193,0.3193,0.329,0.3292,0,0,0,0,0,0,0.3092,0.3099,0.3169,0.3173,0.3123,0.3165,0.317,0.3182,0.3188,0.3189,0.319,0.3188,0.3197,0.3198,0.3199,0.326,0.3192,0.3193,0.3194,0.3288,0.329,0.3292,0,0,0,0,0,0,0.309,0.3097,0.3167,0.3139,0.3148,0.3168,0.3182,0.3184,0.32,0.3197,0.3196,0.3204,0.3196,0.3197,0.322,0.3259,0.3194,0.3195,0.3286,0.3289,0.3291,0.3372,0,0,0,0,0,0,0.3087,0.3096,0.3107,0.3139,0.315,0.3205,0.3183,0.3186,0.3209,0.3207,0.3209,0.3207,0.3195,0.3219,0.3221,0.3259,0.3196,0.3284,0.3287,0.3291,0.3367,0.3377,0.3386,0,0,0,0,0,0.3083,0.3098,0.3107,0.3116,0.3162,0.3207,0.3214,0.3221,0.3211,0.3227,0.3228,0.3207,0.3243,0.3221,0.3224,0.3263,0.3282,0.3286,0.329,0.3363,0.3375,0.3386,0,0,0,0,0,0,0.3054,0.3099,0.3109,0.3135,0.3173,0.3205,0.3219,0.3231,0.3248,0.3241,0.3231,0.323,0.3263,0.3256,0.3232,0.3301,0.3259,0.3264,0.3314,0.3325,0.3335,0.3342,0.3197,0,0,0,0,0,0.3058,0.3081,0.3127,0.3147,0.3167,0.3198,0.3217,0.323,0.3249,0.3255,0.3258,0.3265,0.3287,0.3297,0.3306,0.3349,0.3379,0.3376,0.3385,0.3394,0.3403,0.348,0.3498,0.3306,0.3306,0.3306,0,0,0.305,0.3079,0.309,0.3144,0.3168,0.3215,0.3204,0.324,0.328,0.3252,0.3293,0.3295,0.3303,0.3346,0.3362,0.3344,0.3472,0.3399,0.3406,0.3411,0.3486,0.3505,0.3522,0.3309,0.3309,0.3308,0,0,0.3053,0.3075,0.3103,0.3144,0.3196,0.3224,0.3238,0.3283,0.3301,0.3349,0.334,0.3368,0.3395,0.3417,0.343,0.3501,0.3515,0.3502,0.3565,0.364,0.3657,0.3672,0.377,0.3793,0.3513,0.3513,0.3513,0,0.3046,0.309,0.3117,0.3164,0.3201,0.3231,0.328,0.3315,0.3361,0.3388,0.3366,0.3437,0.3434,0.3509,0.3528,0.3524,0.3575,0.352,0.3654,0.3669,0.3683,0.3779,0.3804,0.3518,0.3517,0.3517,0.3516,0,0.3081,0.3123,0.3143,0.3215,0.3257,0.3302,0.336,0.3398,0.3421,0.3459,0.3527,0.3539,0.3582,0.3591,0.3579,0.3682,0.3692,0.3653,0.3626,0.3707,0.3804,0.3828,0.3524,0.3522,0.3521,0.352,0,0,0.3059,0.315,0.316,0.3208,0.3291,0.3333,0.34,0.3479,0.3532,0.3577,0.3651,0.3694,0.3703,0.372,0.3722,0.3784,0.3928,0.3765,0.3766,0.3865,0.4129,0.4114,0.4138,0.3916,0.392,0.3923,0.417,0,0.3086,0.3171,0.3213,0.3303,0.3359,0.3412,0.3476,0.3549,0.3601,0.3677,0.3721,0.3782,0.3756,0.3781,0.3847,0.3897,0.3989,0.3866,0.4032,0.4038,0.4016,0.4164,0.3975,0.4177,0.4193,0.4197,0.42,0,0.3121,0.3177,0.3258,0.3364,0.3392,0.3445,0.3552,0.3617,0.3724,0.3764,0.3842,0.3873,0.3982,0.3929,0.4109,0.4035,0.4098,0.4137,0.4147,0.4117,0.4066,0.4091,0.4219,0.4096,0.4236,0.4234,0.4231,0,0.3113,0.3218,0.3279,0.3318,0.3434,0.3474,0.3534,0.3638,0.371,0.3822,0.3894,0.4003,0.4084,0.417,0.4264,0.4198,0.4463,0.4377,0.444,0.444,0.4303,0.4285,0.4327,0.4522,0.4522,0.4521,0.452,0,0.3147,0.3206,0.3277,0.3321,0.3404,0.3476,0.3572,0.3643,0.376,0.386,0.394,0.4056,0.4148,0.4298,0.4344,0.4501,0.4546,0.4499,0.4515,0.4329,0.4311,0.4212,0.4161,0.453,0.4528,0.4526,0.4525,0,0.3167,0.3202,0.3283,0.3377,0.3405,0.3467,0.3593,0.3664,0.3777,0.3912,0.3957,0.4148,0.4343,0.446,0.4629,0.4628,0.4623,0.4784,0.4576,0.4563,0.4439,0.4401,0.4343,0.4214,0.4881,0.4882,0.4883,0,0.3213,0.3244,0.3313,0.3349,0.3395,0.3484,0.3543,0.3654,0.3729,0.397,0.4037,0.4281,0.4422,0.4707,0.4757,0.4888,0.4722,0.4777,0.4594,0.4458,0.4428,0.423,0.4108,0.4468,0.4465,0.4463,0.4462,0,0.3311,0.3299,0.3355,0.3388,0.3438,0.3499,0.3586,0.3641,0.3778,0.3909,0.4098,0.4233,0.4514,0.4571,0.4758,0.4793,0.4525,0.474,0.464,0.4165,0.3911,0.3783,0.4304,0.4444,0.4446,0.4447,0.4448,0.4449,0.3388,0.3409,0.3425,0.3454,0.3484,0.3491,0.3505,0.36,0.3702,0.384,0.4042,0.4178,0.4346,0.4575,0.4592,0.4494,0.4461,0.4332,0.4326,0.416,0.3928,0.4438,0.4555,0.4557,0.4559,0.4561,0.4562,0,0.3472,0.3465,0.3499,0.3484,0.3461,0.3477,0.3514,0.3491,0.3547,0.3721,0.3858,0.3998,0.4096,0.4197,0.4216,0.4071,0.3845,0.3972,0.3621,0.3542,0.4046,0.3915,0.3845,0.3845,0.3845,0.3845,0.3845,0.3846,0.3529,0.3532,0.3499,0.3448,0.342,0.3323,0.3301,0.3287,0.3351,0.3413,0.3467,0.3585,0.3816,0.3977,0.3858,0.3759,0.3439,0.3314,0.3318,0.3649,0.3678,0.3706,0.3569,0.3427,0.3427,0.26,0.2595,0.259]},{"header":{"parameterUnit":"m.s-1","parameterCategory":2,"la1":30.2991,"la2":30.254,"lo1":-89.0895,"lo2":-89.0444,"dy":0.0017,"dx":0.0017,"nx":28,"ny":28,"refTime":"2024-10-21T21:00:00:Z","depth":"0","parameterNumber":3,"parameterNumberName":"V-component_of_CURRENTS"},"data":[0,0,0,0,0,0,0,0,0,0,0,0,0,0,0,0,0,0,0,0,0,0,0,0,0,0,0,0,0,0,0,0,0,0,0,0,0,0,0,0,0,0,0,0,0,0,0,0,0,0,0,0,0,0,0,0,0,0,-0.0418,-0.0418,0,-0.0493,-0.0494,-0.0495,-0.0541,-0.0541,-0.0541,-0.0541,-0.0644,-0.0647,-0.0649,0,0,0,0,0,0,0,0,0,0,0,0,0,-0.0417,-0.0417,-0.0418,-0.0418,-0.0419,-0.0493,-0.0494,-0.0496,-0.0541,-0.0541,-0.0541,-0.0541,-0.0643,-0.0646,-0.065,0,0,0,0,0,0,0,0,0,0,0,0,0,-0.0449,-0.0416,-0.0417,-0.0449,-0.0453,-0.0493,-0.0494,-0.0496,-0.0541,-0.0541,-0.0541,-0.0541,-0.0642,-0.0646,-0.065,-0.0674,0,0,-0.0663,-0.0664,0,0,0,0,0,0,0,0,-0.0447,-0.0449,-0.0444,-0.0447,-0.0451,-0.0506,-0.0532,-0.0556,-0.0541,-0.051,-0.0541,-0.0541,-0.0599,-0.0607,-0.0623,-0.0679,-0.0684,-0.0663,-0.0665,-0.0667,-0.0668,0,0,0,0,0,0,0,-0.0445,-0.0447,-0.045,-0.0445,-0.0449,-0.0495,-0.0499,-0.0537,-0.0555,-0.0513,-0.0516,-0.0521,-0.0602,-0.0619,-0.0626,-0.0685,-0.0663,-0.0666,-0.0669,-0.0671,-0.076,-0.076,0,0,0,0,0,0,-0.0425,-0.0444,-0.0447,-0.0452,-0.0447,-0.0495,-0.0499,-0.049,-0.0555,-0.0564,-0.052,-0.0522,-0.0612,-0.0621,-0.063,-0.0655,-0.0667,-0.0671,-0.0673,-0.076,-0.076,-0.076,0,0,0,0,0,0,-0.0425,-0.0424,-0.0444,-0.0449,-0.0455,-0.0494,-0.0484,-0.0491,-0.0506,-0.056,-0.057,-0.0526,-0.0613,-0.0624,-0.0648,-0.0659,-0.0673,-0.0676,-0.076,-0.076,-0.076,-0.0709,0,0,0,0,0,0,-0.0424,-0.0423,-0.0415,-0.0447,-0.0454,-0.0456,-0.0484,-0.0493,-0.0508,-0.0512,-0.0568,-0.0578,-0.0614,-0.0642,-0.0652,-0.0665,-0.068,-0.0761,-0.076,-0.076,-0.0711,-0.0707,-0.0704,0,0,0,0,0,-0.0424,-0.0398,-0.0413,-0.0414,-0.0438,-0.0455,-0.0463,-0.0494,-0.0508,-0.0509,-0.0541,-0.0576,-0.0649,-0.0644,-0.0657,-0.0671,-0.0761,-0.076,-0.076,-0.0712,-0.0708,-0.0704,0,0,0,0,0,0,-0.0381,-0.0401,-0.0419,-0.0398,-0.0423,-0.0462,-0.0462,-0.0488,-0.0516,-0.0516,-0.057,-0.0582,-0.0609,-0.0643,-0.0636,-0.0696,-0.0713,-0.0716,-0.0673,-0.0669,-0.0666,-0.0626,-0.0683,0,0,0,0,0,-0.0371,-0.0363,-0.0392,-0.0377,-0.0385,-0.0426,-0.0438,-0.0458,-0.0486,-0.0499,-0.0539,-0.0581,-0.062,-0.0643,-0.0678,-0.0709,-0.0715,-0.0728,-0.0725,-0.0722,-0.0698,-0.0732,-0.0729,-0.076,-0.076,-0.076,0,0,-0.0349,-0.036,-0.0355,-0.037,-0.0391,-0.0394,-0.0433,-0.0439,-0.0444,-0.0505,-0.052,-0.0566,-0.0623,-0.0654,-0.0671,-0.0684,-0.0711,-0.0722,-0.0719,-0.0696,-0.0732,-0.0729,-0.0726,-0.076,-0.076,-0.076,0,0,-0.0302,-0.0312,-0.0294,-0.0312,-0.0336,-0.0363,-0.0361,-0.0397,-0.0414,-0.0437,-0.0483,-0.0523,-0.0586,-0.0627,-0.0657,-0.0655,-0.0687,-0.0681,-0.0641,-0.0675,-0.0673,-0.067,-0.0646,-0.0642,-0.0686,-0.0686,-0.0686,0,-0.028,-0.0258,-0.0291,-0.0284,-0.0292,-0.0343,-0.0329,-0.0355,-0.0396,-0.0399,-0.043,-0.0514,-0.057,-0.0608,-0.0615,-0.0648,-0.0652,-0.0653,-0.0669,-0.0668,-0.0666,-0.0642,-0.0638,-0.0684,-0.0684,-0.0684,-0.0685,0,-0.0224,-0.0215,-0.0202,-0.0214,-0.0227,-0.0221,-0.026,-0.0268,-0.0302,-0.0333,-0.0368,-0.0447,-0.0491,-0.0536,-0.058,-0.0606,-0.0604,-0.0656,-0.0675,-0.066,-0.0635,-0.0632,-0.068,-0.0681,-0.0682,-0.0682,0,0,-0.0157,-0.0163,-0.016,-0.0154,-0.0189,-0.0187,-0.0189,-0.0202,-0.0179,-0.0255,-0.0238,-0.035,-0.039,-0.0426,-0.0499,-0.0548,-0.0551,-0.0596,-0.0599,-0.056,-0.058,-0.0513,-0.0503,-0.0614,-0.0614,-0.0614,-0.0556,0,-0.0107,-0.007,-0.0093,-0.0065,-0.0051,-0.0093,-0.0085,-0.0105,-0.0127,-0.012,-0.0217,-0.024,-0.0351,-0.0372,-0.0437,-0.051,-0.0545,-0.0558,-0.0609,-0.0608,-0.0544,-0.0499,-0.0492,-0.0435,-0.0553,-0.0552,-0.0552,0,-0.0048,-0.0033,0.0012,0.0019,0.0024,0.0034,0.0055,0.0054,0.0042,0.0027,-0.002,-0.0086,-0.0155,-0.0259,-0.0374,-0.0377,-0.0466,-0.0538,-0.0539,-0.0488,-0.0536,-0.0477,-0.0425,-0.0635,-0.0548,-0.0548,-0.0549,0,0.0018,0.0039,0.0081,0.0081,0.0084,0.0108,0.011,0.0109,0.0145,0.0129,0.0169,0.0054,0.0038,-0.0112,-0.0251,-0.0319,-0.0348,-0.0464,-0.0482,-0.0476,-0.0481,-0.0476,-0.0629,-0.0544,-0.0544,-0.0544,-0.0545,0,0.0076,0.0104,0.0125,0.0146,0.022,0.0183,0.0267,0.0261,0.0293,0.0379,0.0254,0.0319,0.0069,0.002,-0.016,-0.0258,-0.0274,-0.0436,-0.0456,-0.0459,-0.0453,-0.0646,-0.0774,-0.0542,-0.0543,-0.0543,-0.0543,0,0.0127,0.014,0.0196,0.0229,0.0256,0.0306,0.0381,0.0447,0.0457,0.0578,0.0582,0.0536,0.0486,0.0278,0.0087,-0.0093,-0.0333,-0.0273,-0.0219,-0.0234,-0.0482,-0.0606,-0.0723,-0.0813,-0.0299,-0.0297,-0.0295,0,0.0144,0.0181,0.0272,0.0339,0.0361,0.044,0.0514,0.0534,0.0622,0.0742,0.0825,0.0813,0.0866,0.0649,0.032,0.0069,-0.0194,-0.0124,-0.028,-0.0454,-0.061,-0.0712,-0.079,-0.026,-0.0258,-0.0257,-0.0256,0,0.0167,0.0213,0.0271,0.0418,0.0516,0.0631,0.0737,0.0843,0.0911,0.1051,0.1236,0.1295,0.1112,0.0886,0.0526,0.0299,-0.0268,-0.0099,-0.0328,-0.0607,-0.0682,-0.0791,-0.0304,-0.0242,-0.0243,-0.0244,-0.0245,-0.0246,0.0183,0.0246,0.0345,0.0485,0.062,0.0793,0.0921,0.1076,0.1274,0.1518,0.1557,0.1726,0.1335,0.0862,0.0536,-0.0097,-0.014,-0.0346,-0.0478,-0.0561,-0.0669,-0.0099,-0.0037,-0.0037,-0.0037,-0.0038,-0.0038,0,0.0197,0.0273,0.04,0.0581,0.0751,0.0813,0.1052,0.1215,0.1502,0.1767,0.197,0.1905,0.1415,0.0849,0.0018,-0.0421,-0.0647,-0.0681,-0.0891,-0.0955,-0.0489,-0.0511,-0.049,-0.049,-0.049,-0.049,-0.049,-0.0489,0.0201,0.0313,0.0387,0.0642,0.0795,0.1043,0.1202,0.1476,0.1713,0.2073,0.2229,0.2308,0.1869,0.038,-0.0628,-0.0866,-0.1234,-0.1267,-0.1437,-0.1202,-0.1185,-0.1168,-0.1221,-0.1349,-0.1351,-0.1874,-0.1879,-0.1883]}],[{"header":{"parameterUnit":"m.s-1","parameterCategory":2,"la1":30.2991,"la2":30.254,"lo1":-89.0895,"lo2":-89.0444,"dy":0.0017,"dx":0.0017,"nx":28,"ny":28,"refTime":"2024-10-21T21:00:00:Z","depth":"2","parameterNumber":2,"parameterNumberName":"U-component_of_CURRENTS"},"data":[0,0,0,0,0,0,0,0,0,0,0,0,0,0,0,0,0,0,0,0,0,0,0,0,0,0,0,0,0,0,0,0,0,0,0,0,0,0,0,0,0,0,0,0,0,0,0,0,0,0,0,0,0,0,0,0,0,0,0.2455,0.2456,0,0.252,0.2521,0.2522,0.2559,0.2559,0.2559,0.2559,0.2575,0.2575,0.2575,0,0,0,0,0,0,0,0,0,0,0,0,0,0.2369,0.237,0.2455,0.2456,0.2457,0.252,0.2521,0.2522,0.2559,0.2559,0.2559,0.2559,0.2575,0.2575,0.2575,0,0,0,0,0,0,0,0,0,0,0,0,0,0.2416,0.237,0.2455,0.2484,0.2487,0.252,0.2521,0.2522,0.2559,0.2559,0.2559,0.2559,0.2575,0.2575,0.2575,0.257,0,0,0.2576,0.2576,0,0,0,0,0,0,0,0,0.2414,0.2419,0.2478,0.2482,0.2485,0.2533,0.2497,0.2536,0.2558,0.253,0.2559,0.256,0.2556,0.2558,0.2569,0.2571,0.2572,0.2576,0.2576,0.2576,0.2576,0,0,0,0,0,0,0,0.241,0.2417,0.248,0.2479,0.2484,0.2496,0.2503,0.2504,0.2539,0.2533,0.2536,0.2545,0.2558,0.2569,0.2569,0.2572,0.2576,0.2576,0.2577,0.2577,0.2676,0.2679,0,0,0,0,0,0,0.2404,0.2414,0.2478,0.2482,0.2451,0.2497,0.2505,0.2516,0.254,0.2545,0.2544,0.2546,0.2568,0.2569,0.257,0.2638,0.2576,0.2577,0.2577,0.2674,0.2677,0.268,0,0,0,0,0,0,0.2402,0.2409,0.2475,0.245,0.2459,0.2498,0.2511,0.2517,0.254,0.255,0.2553,0.2562,0.2568,0.257,0.2596,0.2636,0.2577,0.2577,0.2671,0.2675,0.2678,0.2728,0,0,0,0,0,0,0.2399,0.2408,0.2425,0.245,0.2461,0.2504,0.2511,0.2518,0.2545,0.2548,0.2565,0.2567,0.2569,0.2596,0.2596,0.2636,0.2577,0.2668,0.2673,0.2677,0.2723,0.2733,0.2741,0,0,0,0,0,0.2396,0.2422,0.2425,0.2434,0.2479,0.2505,0.2512,0.2539,0.2546,0.256,0.258,0.2567,0.2627,0.2597,0.2597,0.2638,0.2666,0.2671,0.2677,0.2719,0.2731,0.2741,0,0,0,0,0,0,0.2396,0.2429,0.2433,0.2468,0.2486,0.2512,0.2534,0.2544,0.2572,0.258,0.2582,0.2586,0.2632,0.2628,0.2596,0.2686,0.265,0.2656,0.2683,0.2694,0.2702,0.274,0.2578,0,0,0,0,0,0.2401,0.2423,0.245,0.2473,0.2487,0.2508,0.2526,0.2542,0.2565,0.2578,0.2597,0.2623,0.2654,0.2666,0.269,0.2721,0.2741,0.2755,0.2764,0.2771,0.2806,0.2857,0.2873,0.2698,0.2698,0.2698,0,0,0.2398,0.2425,0.2433,0.2473,0.249,0.2524,0.252,0.2551,0.2592,0.2573,0.2639,0.265,0.267,0.2721,0.2742,0.2721,0.2834,0.2778,0.2784,0.2816,0.2864,0.2881,0.2896,0.2702,0.2701,0.27,0,0,0.2409,0.2435,0.2458,0.2486,0.2523,0.254,0.255,0.2588,0.2622,0.2671,0.2684,0.2721,0.2758,0.2791,0.2808,0.2879,0.288,0.2889,0.296,0.3008,0.3023,0.3036,0.3084,0.3101,0.2892,0.2892,0.2892,0,0.2403,0.2449,0.2467,0.2508,0.2535,0.2549,0.2583,0.2625,0.2671,0.2712,0.2702,0.28,0.28,0.2879,0.2915,0.29,0.2931,0.2908,0.3019,0.3032,0.3045,0.3091,0.3109,0.2895,0.2894,0.2894,0.2894,0,0.2439,0.2482,0.2501,0.2555,0.2582,0.2616,0.2666,0.2716,0.2751,0.2792,0.2882,0.29,0.2957,0.2967,0.2963,0.3064,0.3058,0.3021,0.2985,0.3065,0.3109,0.3127,0.2899,0.2898,0.2897,0.2896,0,0,0.2411,0.2503,0.2515,0.2557,0.2615,0.2645,0.272,0.2795,0.2862,0.2922,0.3008,0.3073,0.3087,0.3111,0.3112,0.3163,0.3264,0.3143,0.3143,0.3181,0.3387,0.3306,0.3317,0.3244,0.3248,0.3251,0.338,0,0.2433,0.2511,0.2555,0.2633,0.2674,0.2727,0.2792,0.2866,0.2931,0.3022,0.3079,0.3154,0.3141,0.317,0.3223,0.3259,0.3316,0.3234,0.3314,0.3317,0.3227,0.3336,0.3082,0.3169,0.3397,0.34,0.3402,0,0.2462,0.2517,0.258,0.2687,0.271,0.276,0.2872,0.294,0.3063,0.3116,0.3207,0.3245,0.3353,0.3307,0.344,0.3392,0.3412,0.3431,0.3435,0.3361,0.327,0.3129,0.3193,0.3432,0.343,0.3428,0.3426,0,0.2442,0.2547,0.2595,0.263,0.2735,0.2793,0.2861,0.2971,0.3049,0.3187,0.326,0.3364,0.3443,0.3494,0.3548,0.3504,0.3682,0.3603,0.3556,0.355,0.3353,0.3323,0.3702,0.3702,0.3702,0.3701,0.3701,0,0.246,0.2512,0.2598,0.2641,0.2731,0.2796,0.2908,0.3,0.3113,0.3215,0.3313,0.3409,0.3501,0.3601,0.3608,0.3661,0.3729,0.3614,0.3593,0.3362,0.3333,0.3568,0.3551,0.3706,0.3705,0.3704,0.3703,0,0.2448,0.2484,0.2564,0.268,0.2727,0.2795,0.2948,0.3026,0.3142,0.328,0.3331,0.3489,0.3612,0.369,0.3785,0.3748,0.3782,0.3774,0.3505,0.3449,0.3601,0.3585,0.3735,0.3733,0.3732,0.3731,0.373,0,0.2449,0.2491,0.2604,0.2654,0.2719,0.2831,0.2907,0.3029,0.3111,0.3318,0.338,0.3552,0.3625,0.3756,0.3738,0.3755,0.3798,0.3517,0.3374,0.3649,0.3613,0.3599,0.3585,0.3136,0.3131,0.3126,0.3122,0,0.2485,0.2513,0.2567,0.2673,0.2752,0.2835,0.2961,0.3013,0.3151,0.3247,0.3365,0.343,0.3585,0.3485,0.3536,0.3497,0.3486,0.3421,0.3807,0.3158,0.3092,0.3054,0.3058,0.3081,0.3085,0.3088,0.309,0.3092,0.2514,0.2537,0.2602,0.2676,0.2752,0.2793,0.283,0.2919,0.2975,0.3053,0.3209,0.3217,0.3281,0.3204,0.3124,0.3081,0.3294,0.3139,0.315,0.3167,0.3065,0.2999,0.2954,0.2957,0.296,0.2962,0.2964,0,0.2572,0.2569,0.2628,0.2667,0.2707,0.2772,0.2822,0.2784,0.2772,0.2866,0.2902,0.2701,0.2662,0.2726,0.2605,0.2608,0.255,0.2495,0.2396,0.2442,0.2482,0.234,0.2038,0.2035,0.2031,0.2028,0,0,0.2566,0.2592,0.2565,0.2572,0.2633,0.2583,0.2576,0.2503,0.2501,0.2402,0.238,0.2558,0.2676,0.2322,0.2288,0.2143,0.2263,0.2062,0.2821,0.2753,0.2788,0.2887,0.2726,0,0,0,0,0]},{"header":{"parameterUnit":"m.s-1","parameterCategory":2,"la1":30.2991,"la2":30.254,"lo1":-89.0895,"lo2":-89.0444,"dy":0.0017,"dx":0.0017,"nx":28,"ny":28,"refTime":"2024-10-21T21:00:00:Z","depth":"2","parameterNumber":3,"parameterNumberName":"V-component_of_CURRENTS"},"data":[0,0,0,0,0,0,0,0,0,0,0,0,0,0,0,0,0,0,0,0,0,0,0,0,0,0,0,0,0,0,0,0,0,0,0,0,0,0,0,0,0,0,0,0,0,0,0,0,0,0,0,0,0,0,0,0,0,0,0.0125,0.0125,0,0.0061,0.006,0.0059,-0.0011,-0.0012,-0.0013,-0.0013,-0.0098,-0.0099,-0.0101,0,0,0,0,0,0,0,0,0,0,0,0,0,0.0137,0.0137,0.0125,0.0125,0.0124,0.0061,0.006,0.0059,-0.0011,-0.0012,-0.0013,-0.0013,-0.0097,-0.0099,-0.0101,0,0,0,0,0,0,0,0,0,0,0,0,0,0.0105,0.0137,0.0125,0.0085,0.0081,0.0062,0.006,0.0059,-0.0011,-0.0012,-0.0013,-0.0014,-0.0096,-0.0099,-0.0101,-0.0096,0,0,-0.0109,-0.011,0,0,0,0,0,0,0,0,0.0107,0.0104,0.0091,0.0088,0.0083,0.0035,0.0033,0.0007,-0.0011,0.002,-0.0013,-0.0014,-0.0052,-0.0058,-0.0073,-0.01,-0.0104,-0.0109,-0.011,-0.0111,-0.0112,0,0,0,0,0,0,0,0.0109,0.0106,0.0096,0.0091,0.0086,0.0053,0.0047,0.0028,-0.0013,0.0017,0.0013,0.0012,-0.0055,-0.007,-0.0075,-0.0105,-0.0109,-0.0111,-0.0112,-0.0113,-0.0175,-0.0175,0,0,0,0,0,0,0.0129,0.0109,0.0098,0.0094,0.0097,0.0054,0.0047,0.0049,-0.0012,-0.0021,0.0013,0.0009,-0.0066,-0.0072,-0.0079,-0.0083,-0.0111,-0.0114,-0.0115,-0.0175,-0.0175,-0.0175,0,0,0,0,0,0,0.0129,0.0129,0.0101,0.0103,0.0098,0.0056,0.0057,0.0048,0.0031,-0.0015,-0.0025,0.0006,-0.0067,-0.0075,-0.0096,-0.0087,-0.0115,-0.0117,-0.0175,-0.0175,-0.0175,-0.0087,0,0,0,0,0,0,0.013,0.0129,0.0131,0.0105,0.0098,0.0097,0.0058,0.0047,0.0035,0.0029,-0.0023,-0.0033,-0.0068,-0.0092,-0.0098,-0.009,-0.0119,-0.0174,-0.0175,-0.0175,-0.009,-0.0084,-0.008,0,0,0,0,0,0.0131,0.0142,0.0132,0.013,0.0104,0.0098,0.0092,0.0055,0.0036,0.0035,-0.0003,-0.0031,-0.0099,-0.0093,-0.0101,-0.0094,-0.0174,-0.0175,-0.0175,-0.0092,-0.0086,-0.008,0,0,0,0,0,0,0.0146,0.0136,0.0124,0.013,0.012,0.0088,0.0085,0.0064,0.0033,0.0026,-0.0023,-0.0034,-0.0053,-0.0086,-0.0078,-0.0116,-0.0145,-0.0147,-0.0079,-0.0074,-0.0069,-0.0048,-0.0121,0,0,0,0,0,0.0154,0.0161,0.0145,0.0152,0.0149,0.0119,0.011,0.0091,0.0064,0.0049,0.0012,-0.003,-0.006,-0.0075,-0.011,-0.0118,-0.0148,-0.0125,-0.012,-0.0115,-0.0106,-0.0137,-0.0134,-0.0177,-0.0177,-0.0177,0,0,0.0163,0.0159,0.0162,0.0156,0.0142,0.0153,0.011,0.0107,0.0112,0.0047,0.0034,-0.0011,-0.006,-0.0078,-0.009,-0.0102,-0.012,-0.0115,-0.011,-0.0104,-0.0137,-0.0133,-0.0129,-0.0177,-0.0177,-0.0177,0,0,0.0196,0.0182,0.0202,0.0198,0.019,0.0177,0.0182,0.0155,0.0135,0.0122,0.0073,0.004,-0.0008,-0.004,-0.0061,-0.0047,-0.0092,-0.0068,-0.002,-0.005,-0.0046,-0.0043,-0.0074,-0.0075,-0.0063,-0.0063,-0.0063,0,0.021,0.0231,0.0206,0.0225,0.0233,0.0196,0.0225,0.0202,0.017,0.0164,0.0128,0.0058,0.0012,0.0001,-0.0007,-0.0032,-0.0061,-0.0033,-0.0041,-0.0038,-0.0037,-0.007,-0.0071,-0.0059,-0.0059,-0.006,-0.006,0,0.0255,0.0274,0.0286,0.0302,0.0304,0.0323,0.0302,0.0295,0.0265,0.024,0.0212,0.0143,0.0104,0.0076,0.0036,0.0026,-0.0002,-0.0028,-0.0047,-0.0026,-0.0063,-0.0066,-0.0053,-0.0054,-0.0056,-0.0057,0,0,0.029,0.0318,0.0322,0.035,0.035,0.0364,0.0374,0.0379,0.0393,0.0333,0.0344,0.0264,0.0218,0.0189,0.0132,0.0095,0.0072,0.004,0.0036,0.0025,0.0003,-0.0033,-0.004,0.0045,0.0045,0.0045,-0.0026,0,0.0339,0.0407,0.0397,0.0458,0.0497,0.0471,0.0496,0.0488,0.0456,0.0452,0.0376,0.0351,0.0264,0.0244,0.0196,0.0107,0.0067,0.0094,-0.003,-0.0034,-0.0054,-0.0044,-0.0021,-0.0083,-0.003,-0.003,-0.003,0,0.0386,0.0432,0.0511,0.0564,0.0577,0.0599,0.0633,0.0646,0.0623,0.0591,0.0543,0.048,0.0418,0.0339,0.0203,0.0223,0.012,0.0043,0.0038,-0.0027,-0.0075,-0.0099,-0.0091,-0.0036,-0.0036,-0.0035,-0.0035,0,0.0438,0.0505,0.058,0.0596,0.0649,0.0673,0.0694,0.0691,0.0721,0.0676,0.0687,0.0587,0.0556,0.0414,0.024,0.0221,0.0092,0.0049,-0.0078,-0.0082,-0.0102,-0.0108,-0.0044,-0.0044,-0.0044,-0.0043,-0.0043,0,0.0498,0.0553,0.0613,0.0648,0.074,0.0745,0.0822,0.0808,0.083,0.0888,0.0766,0.0782,0.0572,0.0472,0.0291,0.0103,0.0129,-0.0066,-0.0101,-0.0073,-0.0075,-0.0069,-0.007,-0.0046,-0.0046,-0.0045,-0.0045,0,0.0546,0.0584,0.0671,0.0741,0.0767,0.0831,0.0911,0.0974,0.0963,0.1034,0.1029,0.0937,0.079,0.0575,0.0351,0.0187,-0.0004,-0.0079,-0.0036,-0.0065,-0.0173,-0.017,-0.0228,-0.0229,-0.0231,-0.0232,-0.0233,0,0.0585,0.0634,0.0733,0.0796,0.0828,0.0924,0.1005,0.1031,0.1106,0.1138,0.1193,0.1073,0.0999,0.0652,0.0331,0.0016,-0.0017,-0.0157,-0.0198,-0.0163,-0.0191,-0.0185,-0.018,-0.0192,-0.0192,-0.0193,-0.0193,0,0.0662,0.0688,0.0765,0.088,0.0972,0.1091,0.1198,0.1286,0.1348,0.1389,0.1433,0.137,0.1036,0.0712,0.0278,0.0067,-0.0111,-0.0179,-0.0141,-0.0149,-0.0135,-0.0161,-0.0156,-0.0198,-0.0197,-0.0197,-0.0197,-0.0197,0.0723,0.0785,0.0875,0.0985,0.1095,0.1248,0.136,0.148,0.1606,0.1679,0.1611,0.1504,0.1141,0.0564,0.0209,-0.0158,-0.0153,-0.0279,-0.0274,-0.027,-0.0254,-0.0243,-0.0323,-0.0324,-0.0324,-0.0324,-0.0324,0,0.0809,0.0869,0.0974,0.1116,0.124,0.1281,0.149,0.1604,0.1762,0.178,0.1767,0.1395,0.1022,0.0618,0.0067,-0.0266,-0.0283,-0.0361,-0.0306,-0.0299,-0.0294,-0.0277,-0.0354,-0.0355,-0.0356,-0.0356,0,0,0.0869,0.0981,0.1026,0.1226,0.1315,0.1502,0.163,0.177,0.1839,0.1843,0.1754,0.1605,0.1121,0.0723,0.0269,-0.0036,-0.0087,-0.0098,-0.0042,0.0083,0.0093,-0.022,-0.0184,0,0,0,0,0]}],[{"header":{"parameterUnit":"m.s-1","parameterCategory":2,"la1":30.2991,"la2":30.254,"lo1":-89.0895,"lo2":-89.0444,"dy":0.0017,"dx":0.0017,"nx":28,"ny":28,"refTime":"2024-10-21T21:00:00:Z","depth":"4","parameterNumber":2,"parameterNumberName":"U-component_of_CURRENTS"},"data":[0,0,0,0,0,0,0,0,0,0,0,0,0,0,0,0,0,0,0,0,0,0,0,0,0,0,0,0,0,0,0,0,0,0,0,0,0,0,0,0,0,0,0,0,0,0,0,0,0,0,0,0,0,0,0,0,0,0,0.1419,0.1421,0,0.1493,0.1494,0.1494,0.1542,0.1543,0.1543,0.1544,0.1609,0.161,0.1611,0,0,0,0,0,0,0,0,0,0,0,0,0,0.1322,0.1323,0.1419,0.1421,0.1422,0.1493,0.1494,0.1495,0.1542,0.1543,0.1544,0.1544,0.1609,0.161,0.1611,0,0,0,0,0,0,0,0,0,0,0,0,0,0.1373,0.1323,0.1419,0.1457,0.1462,0.1493,0.1494,0.1495,0.1542,0.1543,0.1544,0.1545,0.1608,0.161,0.1611,0.16,0,0,0.1616,0.1617,0,0,0,0,0,0,0,0,0.137,0.1376,0.145,0.1455,0.146,0.1513,0.1484,0.1531,0.1541,0.1507,0.1544,0.1545,0.1578,0.1582,0.1588,0.1603,0.1606,0.1616,0.1617,0.1618,0.1618,0,0,0,0,0,0,0,0.1366,0.1373,0.1444,0.1452,0.1458,0.1472,0.148,0.1493,0.1532,0.151,0.1515,0.153,0.158,0.1586,0.159,0.1607,0.1616,0.1618,0.1619,0.1619,0.1729,0.1731,0,0,0,0,0,0,0.1365,0.1369,0.1442,0.1447,0.1422,0.1474,0.1482,0.1492,0.1532,0.1541,0.1529,0.1532,0.1583,0.1588,0.1592,0.1674,0.1618,0.162,0.162,0.1727,0.1729,0.1732,0,0,0,0,0,0,0.1362,0.137,0.1439,0.1414,0.1424,0.1475,0.1485,0.1493,0.1533,0.1548,0.1555,0.1565,0.1584,0.159,0.1638,0.1674,0.162,0.1622,0.1725,0.1728,0.1731,0.1779,0,0,0,0,0,0,0.1359,0.1368,0.1389,0.1413,0.1426,0.1471,0.1484,0.1493,0.154,0.1546,0.158,0.1586,0.1585,0.1635,0.1639,0.1675,0.1623,0.1722,0.1726,0.173,0.1775,0.1783,0.179,0,0,0,0,0,0.1355,0.1378,0.139,0.14,0.1447,0.1472,0.1479,0.1515,0.1541,0.1556,0.1593,0.1586,0.1662,0.1638,0.1642,0.1679,0.1721,0.1725,0.1729,0.1771,0.1781,0.179,0,0,0,0,0,0,0.1349,0.1386,0.1399,0.1434,0.1457,0.1482,0.1511,0.1534,0.1573,0.1593,0.1605,0.1613,0.1668,0.1669,0.1643,0.1724,0.1692,0.1698,0.1723,0.1732,0.174,0.175,0.1624,0,0,0,0,0,0.1355,0.1385,0.1411,0.1442,0.1455,0.1488,0.1511,0.1534,0.1567,0.1588,0.1614,0.165,0.1682,0.1705,0.1725,0.1767,0.1778,0.1797,0.1804,0.1811,0.1824,0.1868,0.188,0.1746,0.1746,0.1746,0,0,0.1363,0.1389,0.1408,0.1444,0.1467,0.149,0.1504,0.1546,0.1577,0.1587,0.1648,0.1675,0.1699,0.1747,0.1773,0.1758,0.1857,0.1816,0.1821,0.1831,0.1873,0.1886,0.1898,0.1749,0.1748,0.1748,0,0,0.1383,0.1414,0.1439,0.1458,0.1501,0.1518,0.1536,0.1575,0.1608,0.1661,0.1683,0.1738,0.1781,0.181,0.1829,0.1893,0.1893,0.1904,0.1954,0.1997,0.2008,0.2018,0.2055,0.2068,0.1911,0.1912,0.1912,0,0.1394,0.142,0.145,0.1473,0.1496,0.1533,0.1555,0.159,0.1645,0.168,0.169,0.1793,0.1812,0.1882,0.1911,0.191,0.1934,0.1913,0.2006,0.2016,0.2025,0.2061,0.2074,0.1914,0.1914,0.1914,0.1913,0,0.1411,0.1444,0.1461,0.15,0.153,0.1554,0.1598,0.1648,0.1697,0.1731,0.182,0.1858,0.1926,0.1941,0.1949,0.2032,0.2027,0.2005,0.1978,0.2042,0.2075,0.2088,0.1918,0.1917,0.1917,0.1916,0,0,0.1399,0.1459,0.1468,0.1486,0.1543,0.1563,0.1634,0.1693,0.1757,0.1817,0.1898,0.1966,0.2006,0.2033,0.2056,0.2098,0.2185,0.2091,0.2091,0.212,0.2287,0.2149,0.215,0.2181,0.2183,0.2185,0.2285,0,0.14,0.1434,0.1475,0.1518,0.1532,0.1598,0.1662,0.1732,0.1802,0.189,0.1954,0.2037,0.2034,0.2092,0.2134,0.2179,0.2222,0.216,0.2228,0.223,0.2094,0.2161,0.2193,0.2294,0.2297,0.23,0.2301,0,0.1394,0.1416,0.1453,0.1524,0.1542,0.1589,0.1701,0.1763,0.1892,0.1957,0.2055,0.211,0.2213,0.2192,0.2302,0.2267,0.229,0.2307,0.231,0.2174,0.2116,0.2218,0.2325,0.2323,0.2321,0.232,0.2318,0,0.1343,0.1403,0.143,0.1448,0.1538,0.1597,0.1662,0.179,0.1869,0.2015,0.21,0.2203,0.2294,0.2336,0.2395,0.2364,0.2494,0.2447,0.2342,0.2333,0.2403,0.2391,0.2515,0.2515,0.2514,0.2514,0.2514,0,0.1306,0.1327,0.1415,0.1426,0.1486,0.1574,0.1676,0.1767,0.1925,0.2018,0.2139,0.2229,0.2339,0.2424,0.2437,0.2439,0.2534,0.2367,0.2353,0.2422,0.2412,0.2413,0.24,0.2518,0.2517,0.2516,0.2516,0,0.1228,0.1289,0.1325,0.1427,0.1464,0.1514,0.1674,0.1752,0.1917,0.2052,0.2113,0.2292,0.2396,0.2479,0.2565,0.2493,0.2503,0.2476,0.2572,0.2558,0.2302,0.2291,0.2361,0.2357,0.2353,0.2351,0.2348,0,0.1175,0.1188,0.1303,0.1344,0.1393,0.1485,0.1558,0.1728,0.1804,0.2062,0.2105,0.2296,0.2386,0.2411,0.2489,0.2512,0.2475,0.2463,0.2354,0.2309,0.2289,0.2283,0.2276,0.2343,0.2342,0.2341,0.234,0,0.1058,0.1129,0.1173,0.1271,0.1348,0.1406,0.1513,0.1567,0.1769,0.1939,0.2065,0.2152,0.2268,0.2325,0.2377,0.2376,0.2456,0.2427,0.2432,0.2329,0.2289,0.227,0.2268,0.2329,0.233,0.2331,0.2332,0,0.0979,0.1003,0.1103,0.1186,0.127,0.1306,0.1373,0.1471,0.1579,0.1854,0.1886,0.2086,0.2246,0.2257,0.2294,0.2299,0.2247,0.2152,0.217,0.2184,0.2077,0.1997,0.195,0,0,0,0,0,0.0886,0.0934,0.1005,0.1092,0.1175,0.1224,0.1337,0.1413,0.1604,0.1647,0.177,0.1871,0.1977,0.2067,0.2034,0.2193,0.2238,0.2142,0.2132,0.2265,0.2278,0.2167,0,0,0,0,0,0,0.083,0.0897,0.0971,0.1,0.1041,0.1105,0.1173,0.1294,0.1315,0.1525,0.1585,0.1751,0.1864,0.1983,0.2,0.2026,0.1977,0.2261,0.2256,0.2257,0.2269,0.228,0.217,0,0,0,0,0]},{"header":{"parameterUnit":"m.s-1","parameterCategory":2,"la1":30.2991,"la2":30.254,"lo1":-89.0895,"lo2":-89.0444,"dy":0.0017,"dx":0.0017,"nx":28,"ny":28,"refTime":"2024-10-21T21:00:00:Z","depth":"4","parameterNumber":3,"parameterNumberName":"V-component_of_CURRENTS"},"data":[0,0,0,0,0,0,0,0,0,0,0,0,0,0,0,0,0,0,0,0,0,0,0,0,0,0,0,0,0,0,0,0,0,0,0,0,0,0,0,0,0,0,0,0,0,0,0,0,0,0,0,0,0,0,0,0,0,0,0.0196,0.0196,0,0.0162,0.0161,0.0161,0.0131,0.0131,0.0131,0.0131,0.0078,0.0077,0.0075,0,0,0,0,0,0,0,0,0,0,0,0,0,0.0202,0.0202,0.0196,0.0196,0.0195,0.0162,0.0161,0.0161,0.0131,0.0131,0.0131,0.013,0.0078,0.0077,0.0075,0,0,0,0,0,0,0,0,0,0,0,0,0,0.0185,0.0202,0.0196,0.0178,0.0176,0.0162,0.0161,0.016,0.0131,0.0131,0.0131,0.013,0.0079,0.0077,0.0075,0.0069,0,0,0.0069,0.0069,0,0,0,0,0,0,0,0,0.0186,0.0185,0.0181,0.0179,0.0177,0.0152,0.0144,0.013,0.0131,0.0146,0.0131,0.013,0.0102,0.0098,0.009,0.0067,0.0065,0.0069,0.0068,0.0067,0.0067,0,0,0,0,0,0,0,0.0188,0.0186,0.0181,0.018,0.0178,0.016,0.0157,0.0141,0.0125,0.0145,0.0143,0.0142,0.0101,0.0092,0.0089,0.0064,0.0069,0.0068,0.0067,0.0066,0.0039,0.0039,0,0,0,0,0,0,0.0197,0.0187,0.0182,0.018,0.0183,0.016,0.0157,0.0159,0.0125,0.012,0.0142,0.0141,0.0096,0.0091,0.0087,0.0096,0.0067,0.0066,0.0065,0.0039,0.0039,0.0039,0,0,0,0,0,0,0.0197,0.0197,0.0183,0.0184,0.0181,0.0161,0.0163,0.0158,0.0154,0.0124,0.0118,0.0144,0.0095,0.009,0.0079,0.0093,0.0065,0.0063,0.0038,0.0039,0.0039,0.0103,0,0,0,0,0,0,0.0198,0.0197,0.0203,0.0185,0.0181,0.0184,0.0163,0.0158,0.0155,0.0152,0.0123,0.0117,0.0095,0.0082,0.0077,0.009,0.0062,0.0038,0.0038,0.0039,0.0101,0.0106,0.0111,0,0,0,0,0,0.0198,0.0208,0.0204,0.0203,0.019,0.0185,0.0182,0.0165,0.0155,0.0159,0.0137,0.0118,0.0083,0.0081,0.0075,0.0088,0.0037,0.0038,0.0039,0.0099,0.0105,0.0111,0,0,0,0,0,0,0.0211,0.0206,0.02,0.0208,0.0201,0.0181,0.0182,0.0171,0.0157,0.0154,0.0123,0.0117,0.0111,0.009,0.0089,0.0082,0.0057,0.0057,0.0104,0.011,0.0115,0.0127,0.006,0,0,0,0,0,0.0218,0.0226,0.0216,0.0222,0.022,0.0203,0.0199,0.0189,0.0174,0.0167,0.0148,0.0126,0.011,0.0103,0.0083,0.0082,0.0045,0.0086,0.0091,0.0095,0.01,0.0054,0.0055,0.0042,0.0042,0.0042,0,0,0.0224,0.0223,0.0227,0.0226,0.0217,0.0228,0.02,0.0199,0.021,0.0164,0.0171,0.0143,0.0112,0.0109,0.0105,0.0095,0.0078,0.0096,0.0101,0.0103,0.0055,0.0056,0.0057,0.0043,0.0043,0.0043,0,0,0.0245,0.024,0.0256,0.0258,0.0255,0.0246,0.025,0.0237,0.0232,0.0233,0.0202,0.0184,0.0163,0.0144,0.0131,0.0152,0.0104,0.0146,0.0184,0.0139,0.014,0.014,0.0092,0.0087,0.0151,0.0151,0.0151,0,0.0254,0.0274,0.0259,0.0278,0.0287,0.026,0.0283,0.0276,0.0262,0.0259,0.0244,0.0205,0.018,0.0173,0.018,0.0164,0.0127,0.0166,0.0146,0.0145,0.0144,0.0094,0.0088,0.0155,0.0154,0.0154,0.0154,0,0.0287,0.0307,0.0317,0.0335,0.0341,0.0354,0.0347,0.0352,0.034,0.0323,0.0311,0.0271,0.0248,0.0238,0.0217,0.0203,0.0175,0.0156,0.0133,0.0149,0.0096,0.0088,0.0159,0.0158,0.0157,0.0156,0,0,0.0298,0.0335,0.034,0.0367,0.0376,0.0386,0.0406,0.0411,0.042,0.0394,0.0398,0.0363,0.0328,0.0312,0.0278,0.0242,0.0203,0.0203,0.02,0.0159,0.0097,0.0071,0.0059,0.0178,0.0177,0.0176,0.0062,0,0.0331,0.0388,0.0393,0.0445,0.0475,0.0468,0.0493,0.0491,0.0472,0.0466,0.0417,0.0402,0.0361,0.035,0.0308,0.0228,0.0187,0.0235,0.0084,0.0079,0.0057,0.0051,0.0174,0.0056,0.0054,0.0053,0.0052,0,0.0362,0.0401,0.0464,0.0516,0.0527,0.0556,0.0583,0.0599,0.0576,0.0558,0.0521,0.0473,0.0424,0.0386,0.0256,0.0287,0.0202,0.0135,0.0128,0.0077,0.0039,0.0035,0.0038,0.0039,0.004,0.0041,0.0042,0,0.0385,0.0448,0.0505,0.0523,0.0576,0.0607,0.0631,0.0627,0.0646,0.0612,0.0606,0.0526,0.0492,0.0379,0.0238,0.0245,0.0081,0.007,-0.0036,-0.0039,-0.0009,-0.0008,-0.0023,-0.0023,-0.0023,-0.0022,-0.0022,0,0.0419,0.0467,0.0527,0.0561,0.0633,0.0651,0.0708,0.0711,0.0718,0.0731,0.0657,0.0634,0.0488,0.0376,0.0248,0.0076,0.0082,-0.0033,-0.007,0.002,0.0026,-0.0015,-0.0013,-0.0027,-0.0026,-0.0025,-0.0024,0,0.0445,0.0479,0.0551,0.0621,0.0649,0.0701,0.0776,0.0811,0.0804,0.0818,0.0814,0.0711,0.0556,0.0393,0.0195,0.0091,-0.007,-0.0132,-0.003,-0.0059,-0.0162,-0.0155,-0.0255,-0.0257,-0.0258,-0.026,-0.0261,0,0.0466,0.051,0.0596,0.0643,0.0684,0.0765,0.0824,0.0854,0.088,0.0855,0.0857,0.0728,0.0635,0.0337,0.0157,-0.0099,-0.0131,-0.0212,-0.0177,-0.016,-0.0186,-0.0176,-0.0167,-0.0263,-0.0264,-0.0264,-0.0265,0,0.0515,0.0545,0.0605,0.0699,0.0772,0.0849,0.0923,0.0949,0.097,0.0965,0.0887,0.0738,0.0556,0.0328,0.0123,-0.0057,-0.0156,-0.0229,-0.0226,-0.0195,-0.0171,-0.0193,-0.0183,-0.027,-0.0269,-0.0269,-0.0269,0,0.0555,0.0603,0.0678,0.0759,0.0843,0.0908,0.0944,0.0974,0.0999,0.0964,0.0929,0.0742,0.0632,0.0347,0.0156,-0.0025,-0.0063,-0.0106,-0.0111,-0.0107,-0.003,0.0023,-0.0051,0,0,0,0,0,0.0599,0.066,0.0735,0.0816,0.0888,0.0934,0.1003,0.1025,0.1035,0.0992,0.0965,0.0794,0.0508,0.0376,0.019,0.0121,-0.0099,-0.0104,-0.0152,-0.0301,-0.0295,-0.0233,0,0,0,0,0,0,0.0631,0.0716,0.0746,0.0842,0.0896,0.0981,0.1023,0.1029,0.0995,0.0974,0.0821,0.075,0.0465,0.0616,0.0187,0.013,0.0074,-0.0238,-0.0242,-0.0305,-0.0299,-0.0294,-0.0228,0,0,0,0,0]}]]